STARLINK-4058 (53266 NORAD) Tracking and Keplerian Element Data

This shows tracking and keplerian element data for the satellite.

Feedback or suggestion? Click here.




ElementValue
Catalog53266
NameSTARLINK-4058
Epoch Orbit1075
Epoch Day270.25001157
Epoch Year2022
RAAN88.1561
Inclination53.2174
Eccentricity0.0001226
Argument of Perigee78.6673
Mean Anonmoly216.0559
Mean Motion15.21346059
Decay Rate-0.01069198
L11 53266U 22086AA 22270.25001157 -.01069198 00000+0 -51509-1 0 9990
L22 53266 53.2174 88.1561 0001226 78.6673 216.0559 15.21346059 10750

Live tracking and technical data element details for STARLINK-4058 (NORAD 53266). STARLINK-4058 can be tracked NOW for your location showing map with azimuth and elevation plus other details from your city location.

Track the satellite on the map from your city or location and see movement details for azimuth, elevation, latitude, longitude, range, height, and movement on the map or in text.







IsCatalogInMostPopularTable: catalog: 53266, numindb: 3
Update: records affected: 1



GetName: 53266 STARLINK-4058

Hit Count: updated at: Wed, 28 Sep 2022 21:38:43 GMT